Home   Weather   Emmen   Past weeks

Flag for Netherlands Past Weather in Emmen, Netherlands — Yesterday and Last 2 Weeks

Now
65 °F

Fog.


Feels Like: 65 °F
Forecast: 49 / 69 °F
Wind: 2 mph from Southeast

Location: Meppen

Current Time: May 30, 2017 at 7:22:20 am

Latest Report: May 30, 2017 at 7:00 am


Visibility: 3 mi

Pressure: 29.87 "Hg

Humidity: 91%

Dew Point: 62 °F

Location of EmmenLocation

Past Weather in Emmen — Graph

°F

Emmen Temperature Yesterday

Maximum temperature yesterday: 87 °F (at 6:00 pm)
Minimum temperature yesterday: 55 °F (at 6:00 am)
Average temperature yesterday: 69 °F

High & Low Weather Summary for the Past Weeks

 TemperatureHumidityPressure
High87 °F (May 29, 6:00 pm)97% (May 15, 7:00 am)30.40 "Hg (May 15, 7:00 am)
Low41 °F (May 21, 6:00 am)25% (May 15, 3:00 pm)29.76 "Hg (May 19, 6:00 am)
Average64 °F65%30.11 "Hg
* Reported May 15 6:00 am — May 30 6:00 am, Emmen. Weather by CustomWeather, © 2017

Note: Actual official high and low records may vary slightly from our data, if they occured in-between our weather recording intervals... More about our weather records

Advertising

Emmen Weather History for the Previous 24 Hours

Scroll right to see more
 ConditionsComfort  
Time TempWeatherWind HumidityBarometerVisibility
6:00 am
Tue, May 30
64 °FMild.2 mph93%29.86 "Hg2 mi
4:00 am64 °FMild.1 mph92%29.85 "Hg1 mi
3:00 am64 °FMild.2 mph86%29.89 "Hg4 mi
1:00 am65 °FMild.No wind84%29.86 "Hg5 mi
12:00 am66 °FMild.1 mph79%29.85 "Hg4 mi
10:00 pm
Mon, May 29
73 °FMild.2 mph70%29.85 "Hg7 mi
9:00 pm75 °FMild.2 mph65%29.85 "Hg7 mi
7:00 pm83 °FWarm.2 mph53%29.83 "Hg7 mi
6:00 pm87 °FWarm.2 mph43%29.83 "Hg7 mi
4:00 pm85 °FWarm.1 mph46%29.86 "Hg7 mi
3:00 pm84 °FWarm.2 mph46%29.87 "Hg6 mi
1:00 pm79 °FScattered clouds.2 mph54%29.91 "Hg19 mi
12:00 pm74 °FScattered clouds.2 mph57%29.92 "Hg17 mi
10:00 am63 °FOvercast.3 mph80%29.98 "Hg17 mi
9:00 am62 °FLight rain. Overcast.2 mph79%30.02 "Hg17 mi
7:00 am57 °FOvercast.2 mph91%29.98 "Hg7 mi
Weather by CustomWeather, © 2017

See weather overviewHow to use our weather pages